Hourly Weather Bolshie Purnevichi

Today, 15 June, Tuesday

Time Temperature Precipitation Wind Pressure Humidity
00:00 +15°C° 0 mm 1 mps 743 mmHg 85%
01:00 +14°C° 0 mm 1 mps 743 mmHg 86%
02:00 +14°C° 0 mm 2 mps 743 mmHg 88%
03:00 +13°C° 0 mm 2 mps 743 mmHg 88%
04:00 +13°C° 0 mm 1 mps 743 mmHg 87%
05:00 +12°C° 0 mm 1 mps 743 mmHg 87%
06:00 +14°C° 0 mm 2 mps 743 mmHg 81%
07:00 +16°C° 0 mm 2 mps 743 mmHg 76%
08:00 +17°C° 0 mm 3 mps 744 mmHg 72%
09:00 +19°C° 0 mm 3 mps 744 mmHg 67%
10:00 +20°C° 0 mm 3 mps 743 mmHg 63%
11:00 +21°C° 0 mm 3 mps 743 mmHg 58%
12:00 +21°C° 0 mm 3 mps 743 mmHg 59%
13:00 +22°C° 0 mm 3 mps 743 mmHg 59%
14:00 +22°C° 0 mm 3 mps 743 mmHg 60%
15:00 +22°C° 0 mm 3 mps 742 mmHg 63%
16:00 +23°C° 0 mm 2 mps 742 mmHg 67%
17:00 +23°C° 0 mm 2 mps 742 mmHg 70%
18:00 +21°C° 0.1 mm 2 mps 742 mmHg 76%
19:00 +19°C° 0.1 mm 3 mps 742 mmHg 82%
20:00 +18°C° 0.1 mm 3 mps 742 mmHg 88%
21:00 +17°C° 0 mm 3 mps 742 mmHg 90%
22:00 +16°C° 0 mm 3 mps 742 mmHg 93%
23:00 +14°C° 0 mm 3 mps 742 mmHg 96%

Tomorrow, 16 June, Wednesday

Time Temperature Precipitation Wind Pressure Humidity
00:00 +14°C° 0 mm 3 mps 742 mmHg 96%
01:00 +14°C° 0 mm 3 mps 742 mmHg 96%
02:00 +14°C° 0 mm 3 mps 742 mmHg 96%
03:00 +13°C° 0 mm 3 mps 743 mmHg 95%
04:00 +12°C° 0 mm 3 mps 743 mmHg 93%
05:00 +11°C° 0 mm 3 mps 743 mmHg 92%
06:00 +12°C° 0 mm 3 mps 743 mmHg 86%
07:00 +13°C° 0 mm 3 mps 744 mmHg 80%
08:00 +16°C° 0 mm 3 mps 744 mmHg 74%
09:00 +17°C° 0 mm 3 mps 744 mmHg 68%
10:00 +18°C° 0 mm 3 mps 744 mmHg 63%
11:00 +19°C° 0 mm 3 mps 744 mmHg 58%
12:00 +20°C° 0 mm 3 mps 744 mmHg 56%
13:00 +21°C° 0 mm 3 mps 744 mmHg 54%
14:00 +21°C° 0 mm 3 mps 744 mmHg 52%
15:00 +21°C° 0 mm 3 mps 744 mmHg 56%
16:00 +21°C° 0 mm 3 mps 744 mmHg 59%
17:00 +21°C° 0 mm 3 mps 745 mmHg 62%
18:00 +19°C° 0 mm 3 mps 745 mmHg 67%
19:00 +18°C° 0 mm 3 mps 745 mmHg 72%
20:00 +16°C° 0 mm 2 mps 745 mmHg 77%
21:00 +15°C° 0 mm 2 mps 745 mmHg 79%
22:00 +14°C° 0 mm 2 mps 745 mmHg 80%
23:00 +13°C° 0 mm 2 mps 746 mmHg 82%

Day after tomorrow, 17 June, Thursday

Time Temperature Precipitation Wind Pressure Humidity
00:00 +12°C° 0 mm 2 mps 746 mmHg 83%
01:00 +12°C° 0 mm 2 mps 746 mmHg 84%
02:00 +10°C° 0 mm 2 mps 746 mmHg 84%
03:00 +10°C° 0 mm 2 mps 746 mmHg 84%
04:00 +10°C° 0 mm 2 mps 747 mmHg 84%
05:00 +10°C° 0 mm 2 mps 747 mmHg 84%
06:00 +13°C° 0 mm 2 mps 747 mmHg 79%
07:00 +16°C° 0 mm 2 mps 747 mmHg 74%
08:00 +18°C° 0 mm 2 mps 748 mmHg 69%
09:00 +19°C° 0 mm 2 mps 748 mmHg 65%
10:00 +20°C° 0 mm 2 mps 748 mmHg 60%
11:00 +23°C° 0 mm 2 mps 748 mmHg 55%
12:00 +23°C° 0 mm 2 mps 748 mmHg 54%
13:00 +24°C° 0 mm 2 mps 748 mmHg 52%
14:00 +25°C° 0 mm 2 mps 748 mmHg 50%
15:00 +25°C° 0 mm 2 mps 748 mmHg 52%
16:00 +25°C° 0 mm 2 mps 748 mmHg 54%
17:00 +25°C° 0 mm 2 mps 747 mmHg 57%
18:00 +23°C° 0 mm 2 mps 747 mmHg 63%
19:00 +21°C° 0 mm 2 mps 747 mmHg 70%
20:00 +20°C° 0 mm 2 mps 747 mmHg 77%
21:00 +19°C° 0 mm 2 mps 748 mmHg 79%
22:00 +17°C° 0 mm 2 mps 748 mmHg 81%
23:00 +16°C° 0 mm 2 mps 748 mmHg 83%

18 June, Friday

Time Temperature Precipitation Wind Pressure Humidity
00:00 +16°C° 0 mm 2 mps 748 mmHg 85%
01:00 +16°C° 0 mm 2 mps 748 mmHg 87%
02:00 +15°C° 0 mm 2 mps 748 mmHg 90%
03:00 +15°C° 0 mm 2 mps 748 mmHg 90%
04:00 +15°C° 0 mm 2 mps 748 mmHg 89%
05:00 +15°C° 0 mm 2 mps 748 mmHg 89%
06:00 +17°C° 0 mm 3 mps 748 mmHg 84%
07:00 +18°C° 0 mm 3 mps 749 mmHg 79%
08:00 +20°C° 0 mm 4 mps 749 mmHg 73%
09:00 +21°C° 0 mm 4 mps 749 mmHg 69%
10:00 +22°C° 0 mm 4 mps 749 mmHg 65%
11:00 +25°C° 0 mm 4 mps 749 mmHg 61%
12:00 +25°C° 0 mm 4 mps 749 mmHg 59%
13:00 +26°C° 0 mm 4 mps 749 mmHg 57%
14:00 +26°C° 0 mm 4 mps 748 mmHg 55%
15:00 +26°C° 0 mm 4 mps 748 mmHg 58%
16:00 +26°C° 0 mm 3 mps 748 mmHg 62%
17:00 +25°C° 0 mm 3 mps 748 mmHg 65%
18:00 +24°C° 0 mm 3 mps 748 mmHg 70%
19:00 +21°C° 0 mm 3 mps 748 mmHg 75%
20:00 +20°C° 0 mm 3 mps 748 mmHg 80%
21:00 +19°C° 0 mm 3 mps 748 mmHg 81%
22:00 +18°C° 0 mm 3 mps 748 mmHg 82%
23:00 +17°C° 0 mm 3 mps 748 mmHg 83%

19 June, Saturday

Time Temperature Precipitation Wind Pressure Humidity
00:00 +16°C° 0 mm 3 mps 748 mmHg 86%
01:00 +16°C° 0 mm 3 mps 748 mmHg 89%
02:00 +16°C° 0 mm 3 mps 748 mmHg 92%
03:00 +16°C° 0 mm 3 mps 748 mmHg 92%
04:00 +16°C° 0 mm 2 mps 748 mmHg 93%
05:00 +16°C° 0 mm 2 mps 748 mmHg 93%
06:00 +18°C° 0 mm 3 mps 748 mmHg 88%
07:00 +20°C° 0 mm 3 mps 748 mmHg 83%
08:00 +21°C° 0 mm 4 mps 748 mmHg 78%
09:00 +22°C° 0 mm 4 mps 749 mmHg 73%
10:00 +23°C° 0 mm 4 mps 749 mmHg 68%
11:00 +25°C° 0 mm 4 mps 749 mmHg 63%
12:00 +26°C° 0 mm 4 mps 748 mmHg 61%
13:00 +26°C° 0 mm 4 mps 748 mmHg 59%
14:00 +27°C° 0 mm 4 mps 748 mmHg 56%
15:00 +27°C° 0 mm 3 mps 748 mmHg 59%
16:00 +27°C° 0 mm 3 mps 747 mmHg 62%
17:00 +26°C° 0 mm 3 mps 747 mmHg 64%
18:00 +25°C° 0 mm 3 mps 747 mmHg 70%
19:00 +22°C° 0 mm 3 mps 747 mmHg 76%
20:00 +21°C° 0 mm 3 mps 747 mmHg 82%
21:00 +20°C° 0 mm 3 mps 747 mmHg 83%
22:00 +19°C° 0 mm 3 mps 747 mmHg 84%
23:00 +18°C° 0 mm 3 mps 747 mmHg 85%

20 June, Sunday

Time Temperature Precipitation Wind Pressure Humidity
00:00 +17°C° 0 mm 3 mps 747 mmHg 86%
01:00 +17°C° 0 mm 3 mps 747 mmHg 87%
02:00 +16°C° 0 mm 3 mps 747 mmHg 88%
03:00 +16°C° 0 mm 2 mps 747 mmHg 89%
04:00 +16°C° 0 mm 2 mps 747 mmHg 89%
05:00 +16°C° 0 mm 2 mps 747 mmHg 90%
06:00 +18°C° 0 mm 3 mps 747 mmHg 85%
07:00 +20°C° 0 mm 3 mps 747 mmHg 81%
08:00 +21°C° 0 mm 3 mps 747 mmHg 76%
09:00 +24°C° 0 mm 3 mps 747 mmHg 72%
10:00 +25°C° 0 mm 3 mps 747 mmHg 68%
11:00 +26°C° 0 mm 3 mps 747 mmHg 64%
12:00 +27°C° 0 mm 3 mps 747 mmHg 61%
13:00 +27°C° 0 mm 3 mps 746 mmHg 58%
14:00 +28°C° 0 mm 3 mps 746 mmHg 55%
15:00 +27°C° 0 mm 3 mps 746 mmHg 59%
16:00 +27°C° 0 mm 3 mps 746 mmHg 62%
17:00 +27°C° 0 mm 3 mps 746 mmHg 65%
18:00 +26°C° 0 mm 3 mps 745 mmHg 71%
19:00 +24°C° 0 mm 3 mps 745 mmHg 77%
20:00 +22°C° 0 mm 3 mps 745 mmHg 83%
21:00 +21°C° 0 mm 2 mps 745 mmHg 85%
22:00 +20°C° 0 mm 2 mps 745 mmHg 87%
23:00 +19°C° 0 mm 2 mps 746 mmHg 89%
Show more